Hourly Data Report for June 20, 2021

TORONTO CITY
ONTARIO
Current Station Operator: ECCC - MSC

43°40'00.000" N
79°24'00.000" W
112.50 m
6158355
71508
XTO

Download Data

Hourly Data (June 2021)
Hourly Data Report for June 20, 2021
TIME
LST
Temp Definition
°C
Dew Point Definition
°C
Rel Hum Definition
%
Precip. Amount Definition
mm

Wind Dir Definition
10's deg

Wind Spd Definition
km/h
Visibility Definition
km
Stn Press Definition
kPa
Hmdx Definition


Wind Chill Definition


Weather Definition


00:00 18.4 14.5 78 0.0       99.44     LegendNANA
01:00 17.8 14.3 80 0.0       99.44     LegendNANA
02:00 17.1 14.6 85 0.0       99.46     LegendNANA
03:00 16.8 13.5 81 0.0       99.43     LegendNANA
04:00 16.0 12.9 81 0.0       99.47     LegendNANA
05:00 15.8 12.8 82 0.0       99.49     LegendNANA
06:00 16.5 13.3 82 0.0       99.51     LegendNANA
07:00 19.2 11.7 62 0.0       99.51     LegendNANA
08:00 21.7 12.9 57 0.0       99.52     LegendNANA
09:00 22.6 14.0 58 0.0       99.52 26   LegendNANA
10:00 21.5 11.7 54 0.0       99.52     LegendNANA
11:00 22.9 13.0 54 0.0       99.47 26   LegendNANA
12:00 23.8 13.5 53 0.0       99.45 27   LegendNANA
13:00 25.0 14.3 51 0.0       99.40 29   LegendNANA
14:00 25.6 15.2 53 0.0       99.31 30   LegendNANA
15:00 25.1 15.6 56 0.0       99.26 29   LegendNANA
16:00 25.1 15.9 57 0.0       99.19 30   LegendNANA
17:00 22.5 14.4 60 0.0       99.19 26   LegendNANA
18:00 22.6 15.4 64 0.0       99.19 27   LegendNANA
19:00 22.3 15.3 65 0.0       99.14 26   LegendNANA
20:00 21.5 15.1 67 0.0       99.13 26   LegendNANA
21:00 21.5 15.4 68 0.0       99.12 26   LegendNANA
22:00 20.9 15.4 71 0.0       99.08 25   LegendNANA
23:00 20.9 16.1 74 0.0       99.07 26   LegendNANA

Notes on Data Quality.

Legend

  • E = Estimated
  • M = Missing
  • NA = Not Available*
  • [empty] = Indicates an unobserved value
Date modified: